Regional Weather Roundup
Issued by NWS Grand Forks, ND

Home | Current Version | Previous Version | Graphics & Text | Print | Product List | Glossary On
Versions: 1 2 3 4 5 6 7 8 9 10 11 12 13 14 15 16 17 18 19 20 21 22 23 24 25 26 27 28 29 30 31 32 33 34 35 36 37 38 39 40 41 42 43 44 45 46 47 48 49 50
000
ASUS43 KFGF 180831
RWRFGF
PRAIRIE TO PINES  WEATHER ROUNDUP
NATIONAL WEATHER SERVICE EASTERN NORTH DAKOTA/GRAND FORKS ND
300 AM CDT SAT APR 18 2015

 **SATELLITE DATA USED TO AUGMENT SKY COVER AT AUTOMATED STATIONS**
 *****  WEATHER ACROSS EASTERN NORTH DAKOTA  *****

CITY           SKY/WX    TMP DP  RH WIND       PRES   REMARKS
GRAND FORKS    CLEAR     30  24  78 CALM      30.16R
GRAND FRKS AFB CLEAR     30  24  81 N7        30.15S WCI  23
GRAND FRKS NWS   N/A     37 N/A N/A NE6         N/A
DEVILS LAKE    CLEAR     37  28  70 SE7       30.14S
FARGO          FAIR      44  23  43 N8        30.12S
WAHPETON ARPT  SUNNY     43  21  42 NE5       30.10S
$$

 ***** WEATHER ACROSS CENTRAL AND WESTERN NORTH DAKOTA  *****

CITY           SKY/WX    TMP DP  RH WIND       PRES   REMARKS
BISMARCK       PTCLDY    38  27  64 CALM      30.11S
MINOT          CLEAR     39  26  59 SE7       30.10F
JAMESTOWN      PTCLDY    37  26  64 NE9       30.11F
MINOT AFB      CLEAR     35  28  76 SE6       30.10F
GARRISON         N/A     38  28  67 SE6       30.09F
WILLISTON      CLEAR     48  27  44 SE7       30.05F
DICKINSON      CLEAR     41  26  55 E10       30.04F
HETTINGER      MOCLDY    34  25  69 CALM      30.06F
$$

 *****  OTHER AIRPORT OBSERVATIONS IN OUR AREA  *****

CITY           SKY/WX    TMP DP  RH WIND       PRES   REMARKS
WALHALLA       FAIR      30  30 100 S5        30.19R
GRAFTON AIRPOR FAIR      36  28  75 NE7       30.17F
VALLEY CITY AR PTSUNNY   45  27  49 NE7       30.12S
CANDO          FAIR      32  27  80 E8        30.14F WCI  25
CAVALIER APRT  FAIR      37  28  70 NE6       30.18S
GWINNER        SUNNY     41  21  45 N10       30.10F
ROLLA          FAIR      34  27  75 E5        30.15F
 ***** THE ABOVE OBSERVATIONS ARE NON NWS ARE NOT QUALITY
       CONTROLLED AND MAY MIS-REPORT RAIN FOR SNOW...
$$

  *****  WEATHER ACROSS NORTHERN MINNESOTA  *****

CITY           SKY/WX    TMP DP  RH WIND       PRES   REMARKS
FLAG ISLAND    CLEAR     37  30  75 CALM      30.22R
WARROAD        CLEAR     37  32  81 NE9       30.20F
ROSEAU         CLEAR     32  27  80 E5        30.19S
HALLOCK        CLEAR     39  28  65 E10       30.17S
THF RVR FALLS  CLEAR     39  28  65 NE12      30.16S
BAUDETTE       CLEAR     37  29  72 NE8       30.20S
WASKISH        CLEAR     36  30  80 NE9       30.17S
CROOKSTON      CLEAR     39  28  65 E6        30.16R
STEPHEN NDAWN    N/A     34  27  75 E5          N/A
GREENBUSH NDAW   N/A     37  30  75 E10         N/A
$$
  *****  WEATHER ACROSS CENTRAL AND WEST MINNESOTA  *****

CITY           SKY/WX    TMP DP  RH WIND       PRES   REMARKS
FOSSTON        CLEAR     37  23  56 CALM      30.15R
BEMIDJI        CLEAR     36  27  70 E7        30.15R
PARK RAPIDS    CLEAR     47  26  44 NE7       30.12R
ELBOW LAKE     FAIR      51  28  41 NE7       30.08S
WADENA         CLEAR     45  25  45 NE7       30.11S
DETROIT LAKES  CLEAR     46  28  49 E7        30.13S
MOORHEAD       FAIR      39  21  48 N8        30.12F
FERGUS FALLS   CLEAR     52  19  28 E9        30.10S
MORRIS MN      CLEAR     50  27  40 E14       30.06F
STAPLES        CLEAR     46  23  39 NE3       30.12S
$$
  *****  WEATHER ELSEWHERE ACROSS MINNESOTA  *****

CITY           SKY/WX    TMP DP  RH WIND       PRES   REMARKS
DULUTH         CLEAR     45  29  53 NE9       30.14R
INTRNTL FALLS  CLEAR     29  25  85 CALM      30.20S
ELY            CLEAR     37  30  75 NE3       30.19R
CLOQUET        CLEAR     46  27  46 NE9       30.14R
WHEATON        CLEAR     41  25  52 CALM      30.09F
BRAINERD       CLEAR     48  26  42 NE7       30.13R
HIBBING        CLEAR     42  29  59 NE8       30.15R
ALEXANDRIA     CLEAR     49  25  39 NE8       30.11R
SAINT CLOUD    PTCLDY    52  28  39 NE7       30.08R
MINNEAPOLIS    PTCLDY    51  35  54 CALM      30.06R
$$

  *****  WEATHER ACROSS SOUTH DAKOTA  *****

CITY           SKY/WX    TMP DP  RH WIND       PRES   REMARKS
SIOUX FALLS    PTCLDY    49  28  44 NE5       30.02S
BROOKINGS      PTCLDY    43  28  56 CALM      30.05F
WATERTOWN      PTCLDY    40  27  59 N3        30.05F
HURON          CLOUDY    48  33  56 CALM      30.03F
SISSETON         N/A     42  25  50 N9        30.07F
ABERDEEN       CLOUDY    46  28  49 NE9       30.06F
MITCHELL       MOCLDY    56  28  34 NE7       30.02F
PIERRE         CLOUDY    53  47  79 N9        30.03F
MOBRIDGE       MOCLDY    50  24  36 E14       30.04S
RAPID CITY     CLOUDY    48  45  89 CALM      30.06F
$$

  *****  SOME WEATHER IN NEARBY STATES *****

CITY           SKY/WX    TMP DP  RH WIND       PRES   REMARKS
GLASGOW MT     CLEAR     43  28  55 E13       29.96S
GREAT FALLS MT CLEAR     40  28  62 SW12      30.01R
CHEYENNE WY    CLOUDY    34  33  96 NW6       30.01F
SCOTTSBLUFF NE RAIN      42  42 100 W10       30.01F FOG
OMAHA NE       CLOUDY    65  54  67 NE3       29.96F
DES MOINES IA  CLOUDY    64  56  75 CALM      29.99F
DAVENPORT IA   CLEAR     52  45  77 N5        30.01F
CHICAGO IL     PTCLDY    63  47  55 SW6       30.00S
EAU CLAIRE WI  CLEAR     46  35  65 CALM      30.04R
LA CROSSE WI   PTCLDY    53  49  86 CALM      30.03S
$$

  *****  SOME NATIONAL WEATHER *****

CITY           SKY/WX    TMP DP  RH WIND       PRES   REMARKS
LA GUARDIA NY  PTCLDY    58  44  60 NW3       29.95S
RALEIGH NC     CLOUDY    63  61  93 CALM      29.97F
ATLANTA GA     DRIZZLE   63  61  93 NE8       29.97F FOG
NEW ORLEANS LA TSTM      74  70  87 NW3       29.91S
OKLAHOMA CITY  CLOUDY    62  57  83 SE8       29.95R
ALBUQUERQUE NM MOCLDY    43  29  57 N3        30.03F
SALT LAKE CITY PTCLDY    48  36  63 CALM      30.02F
LOS ANGELES CA CLEAR     61  50  67 SW5       30.03R
BOISE ID       CLEAR     50  33  52 NW3       30.05R
SEATTLE WA     CLEAR     51  43  74 N3        30.33R
$$

*** WEATHER ACROSS MANITOBA...SASKATCHEWAN AND ONTARIO ***
                ***ONTARIO***

CITY           SKY/WX    TMP DP  RH WIND       PRES   REMARKS
GERALDTON      CLOUDY    36  32  87 NW7       30.14R
THUNDER BAY    MOCLDY    37  32  81 SW3       30.20R
SIOUX LOOKOUT  CLEAR     25  23  93 CALM      30.20S
TORONTO        PTCLDY    52  39  62 VRB2      29.96S
BIG TROUT LK   MOCLDY    32  32 100 NW3       30.20R
PICKLE LAKE    NOT AVBL
DRYDEN         CLEAR     30  28  93 E3        30.19S
KENORA         CLEAR     37  28  70 SE3       30.21R
$$
                *** MANITOBA***

CITY           SKY/WX    TMP DP  RH WIND       PRES   REMARKS
BRANDON        CLEAR     30  28  93 E7        30.16F WCI  23
DAUPHIN        CLEAR     34  30  86 N6        30.14F
ISLAND LAKE    PTCLDY    32  30  93 SE5       30.21R
PILOT MOUND      N/A     34  28  80 E6          N/A
THE PAS        CLOUDY    43  32  65 SE6       30.06F
THOMPSON       CLEAR     34  23  64 VRB2      30.13F
WINNIPEG       CLEAR     32  27  80 E7        30.21F
LYNN LAKE      MOCLDY    37  25  60 S3        30.03F
CHURCHILL      PTCLDY    16  10  79 N7        30.23R WCI   6
GILLAM         CLEAR     25  23  93 SE3       30.20S
$$
                ***SASKATCHEWAN***

CITY           SKY/WX    TMP DP  RH WIND       PRES   REMARKS
ESTEVAN        CLEAR     41  30  65 SE12G20   30.06
KINDERSLEY     MOCLDY    45  41  87 N16G23    29.89R
LLOYDMINSTER   CLEAR     41  37  87 NW12G20   29.94R
PRINCE ALBERT  LGT RAIN  46  30  53 E12G21    29.89F
REGINA         PTCLDY    45  30  57 SE23G30   29.97F
YORKTON        PTCLDY    41  32  70 SE17G25   30.03F
N. BATTLEFORD  MOCLDY    46  43  87 NW9       29.88F
LA RONGE       LGT RAIN  43  36  75 S7        30.00S
SASKATOON      CLOUDY    52  27  37 SW13G21   29.86R
SWIFT CURRENT  PTCLDY    52  27  37 SW22G28   29.88R
$$
NOTE: THESE ARE AUTOMATED STATIONS WITH LIMITED QUALITY CONTROL
      "FAIR" INDICATES FEW OR NO CLOUDS BELOW 12,000 FEET WITH NO
      SIGNIFICANT WEATHER AND/OR OBSTRUCTIONS TO VISIBILITY.
      SKY/WX - SKY CONDITION AND SIGNIFICANT WEATHER.
      TMP - AIR TEMPERATURE.    DP   - DEWPOINT TEMPERATURE.
      RH  - RELATIVE HUMIDITY.  PRES - PRESSURE.
      HX  - HEAT INDEX.         WCI  - WIND CHILL INDEX.
$


USA.gov is the U.S. government's official web portal to all federal, state and local government web resources and services.